[[{"header":{"parameterUnit":"m.s-1","parameterCategory":1,"la1":30.2991,"la2":30.254,"lo1":-89.0895,"lo2":-89.0444,"dy":0.0017,"dx":0.0017,"nx":28,"ny":28,"refTime":"2023-11-07T09:00:00:Z","depth":0,"parameterNumber":2,"parameterNumberName":"U-component_of_WINDS"},"data":[0,0,0,0,0,0,0,0,0,0,0,0,0,0,0,0,0,0,0,0,0,0,0,0,0,0,0,0,0,0,0,0,0,0,0,0,0,0,0,0,0,0,0,0,0,0,0,0,0,0,0,0,0,0,0,0,0,0,-0.3625,-0.3624,0,-0.3588,-0.3588,-0.3588,-0.3563,-0.3563,-0.3563,-0.3563,-0.3526,-0.3525,-0.3524,0,0,0,0,0,0,0,0,0,0,0,0,0,-0.3673,-0.3672,-0.3625,-0.3624,-0.3624,-0.3588,-0.3588,-0.3587,-0.3563,-0.3563,-0.3563,-0.3563,-0.3526,-0.3525,-0.3524,0,0,0,0,0,0,0,0,0,0,0,0,0,-0.3646,-0.3672,-0.3625,-0.3607,-0.3605,-0.3589,-0.3588,-0.3587,-0.3563,-0.3563,-0.3563,-0.3563,-0.3527,-0.3525,-0.3524,-0.3522,0,0,-0.352,-0.352,0,0,0,0,0,0,0,0,-0.3647,-0.3644,-0.361,-0.3609,-0.3606,-0.358,-0.3591,-0.3565,-0.3563,-0.3579,-0.3563,-0.3562,-0.3544,-0.3542,-0.3535,-0.352,-0.3519,-0.352,-0.352,-0.3519,-0.3519,0,0,0,0,0,0,0,-0.3649,-0.3645,-0.361,-0.361,-0.3607,-0.3601,-0.3597,-0.3586,-0.3564,-0.3578,-0.3576,-0.3572,-0.3543,-0.3537,-0.3534,-0.3518,-0.352,-0.3519,-0.3519,-0.3518,-0.3498,-0.3498,0,0,0,0,0,0,-0.3654,-0.3647,-0.3611,-0.3609,-0.3627,-0.3601,-0.3596,-0.3589,-0.3564,-0.356,-0.3572,-0.3571,-0.3539,-0.3536,-0.3533,-0.3528,-0.3519,-0.3518,-0.3517,-0.3498,-0.3498,-0.3498,0,0,0,0,0,0,-0.3655,-0.3651,-0.3613,-0.3628,-0.3622,-0.36,-0.3592,-0.3588,-0.3582,-0.356,-0.3555,-0.357,-0.3538,-0.3535,-0.3524,-0.3526,-0.3517,-0.3516,-0.3498,-0.3498,-0.3498,-0.3518,0,0,0,0,0,0,-0.3656,-0.3651,-0.365,-0.3628,-0.3622,-0.3605,-0.3592,-0.3588,-0.358,-0.3578,-0.3556,-0.3552,-0.3538,-0.3526,-0.3523,-0.3524,-0.3515,-0.3497,-0.3498,-0.3498,-0.3517,-0.3518,-0.352,0,0,0,0,0,-0.3658,-0.3657,-0.365,-0.3646,-0.362,-0.3605,-0.3602,-0.3585,-0.358,-0.3578,-0.3564,-0.3553,-0.3527,-0.3526,-0.3522,-0.3522,-0.3497,-0.3498,-0.3498,-0.3516,-0.3518,-0.352,0,0,0,0,0,0,-0.3681,-0.3654,-0.3646,-0.3638,-0.3624,-0.3601,-0.3599,-0.3588,-0.3576,-0.3574,-0.3555,-0.355,-0.3542,-0.3531,-0.3531,-0.3518,-0.351,-0.351,-0.3525,-0.3527,-0.3529,-0.3531,-0.3514,0,0,0,0,0,-0.3685,-0.3675,-0.3653,-0.3648,-0.3641,-0.3621,-0.3614,-0.3603,-0.3588,-0.3582,-0.3567,-0.3553,-0.3541,-0.3534,-0.3522,-0.3515,-0.351,-0.3514,-0.3516,-0.3517,-0.3517,-0.3512,-0.3513,-0.35,-0.35,-0.35,0,0,-0.3693,-0.3678,-0.3673,-0.3652,-0.364,-0.363,-0.3617,-0.3607,-0.36,-0.358,-0.3569,-0.3558,-0.3541,-0.3532,-0.3528,-0.3523,-0.3519,-0.3518,-0.3519,-0.3518,-0.3512,-0.3514,-0.3515,-0.35,-0.35,-0.35,0,0,-0.3703,-0.3691,-0.3685,-0.3673,-0.3654,-0.3641,-0.364,-0.3618,-0.361,-0.3599,-0.3584,-0.3575,-0.3556,-0.3544,-0.3535,-0.354,-0.3529,-0.3537,-0.3545,-0.3541,-0.3542,-0.3543,-0.3544,-0.3544,-0.3537,-0.3537,-0.3537,0,-0.3716,-0.3701,-0.3683,-0.3674,-0.3665,-0.3647,-0.3641,-0.363,-0.3609,-0.3603,-0.3598,-0.3573,-0.356,-0.3548,-0.355,-0.3544,-0.3541,-0.3539,-0.3543,-0.3544,-0.3544,-0.3545,-0.3545,-0.3538,-0.3538,-0.3538,-0.3538,0,-0.3717,-0.3706,-0.3704,-0.3683,-0.3674,-0.3667,-0.3648,-0.3641,-0.363,-0.3617,-0.3606,-0.359,-0.3574,-0.3571,-0.356,-0.3557,-0.3555,-0.3547,-0.3538,-0.3547,-0.3547,-0.3547,-0.3539,-0.3539,-0.3539,-0.3538,0,0,-0.374,-0.3709,-0.3708,-0.3699,-0.3677,-0.3668,-0.366,-0.3644,-0.3638,-0.3624,-0.3616,-0.36,-0.3593,-0.3583,-0.3571,-0.3567,-0.3571,-0.356,-0.3559,-0.3562,-0.3566,-0.3571,-0.3572,-0.3564,-0.3564,-0.3564,-0.3567,0,-0.3746,-0.3729,-0.3713,-0.3702,-0.3692,-0.3674,-0.3667,-0.3653,-0.3641,-0.363,-0.3617,-0.3606,-0.3597,-0.3591,-0.3586,-0.3572,-0.3572,-0.3572,-0.3556,-0.3556,-0.356,-0.3572,-0.3578,-0.3581,-0.3567,-0.3567,-0.3567,0,-0.375,-0.3736,-0.3724,-0.3703,-0.3698,-0.3692,-0.3676,-0.3666,-0.365,-0.3641,-0.363,-0.3618,-0.3608,-0.3601,-0.3587,-0.3587,-0.358,-0.3572,-0.3572,-0.3569,-0.3562,-0.3569,-0.3582,-0.3582,-0.3567,-0.3567,-0.3567,0,-0.3767,-0.3746,-0.3735,-0.3728,-0.3703,-0.3698,-0.3688,-0.3671,-0.3662,-0.3649,-0.3643,-0.3628,-0.362,-0.3609,-0.3593,-0.359,-0.358,-0.3572,-0.3572,-0.3573,-0.3571,-0.3571,-0.3582,-0.3568,-0.3568,-0.3568,-0.3568,0,-0.3775,-0.3768,-0.3742,-0.3736,-0.3728,-0.3709,-0.3702,-0.369,-0.3675,-0.3666,-0.365,-0.3642,-0.3622,-0.3611,-0.3599,-0.3588,-0.3585,-0.3578,-0.3574,-0.3578,-0.3579,-0.3573,-0.3572,-0.3568,-0.3568,-0.3568,-0.3568,0,-0.3792,-0.3774,-0.3762,-0.3739,-0.3733,-0.3728,-0.3709,-0.3702,-0.3689,-0.3678,-0.3674,-0.3654,-0.364,-0.3623,-0.3605,-0.3596,-0.3587,-0.3582,-0.3592,-0.359,-0.3591,-0.3591,-0.3598,-0.3597,-0.3584,-0.3584,-0.3585,0,-0.3797,-0.3791,-0.3768,-0.376,-0.375,-0.3739,-0.373,-0.3712,-0.3703,-0.3683,-0.3679,-0.3664,-0.3651,-0.3631,-0.3615,-0.36,-0.3595,-0.3598,-0.3592,-0.3597,-0.3594,-0.3594,-0.3593,-0.3599,-0.3599,-0.36,-0.36,0,-0.3809,-0.38,-0.3788,-0.3772,-0.3762,-0.3749,-0.3735,-0.373,-0.3709,-0.37,-0.3686,-0.3676,-0.3657,-0.3642,-0.3626,-0.3615,-0.3604,-0.3602,-0.3601,-0.3605,-0.361,-0.3607,-0.3595,-0.3601,-0.3601,-0.3601,-0.3601,-0.3601,-0.382,-0.3813,-0.3795,-0.3782,-0.3769,-0.3757,-0.3749,-0.3735,-0.3723,-0.3705,-0.3696,-0.3682,-0.3665,-0.3642,-0.3631,-0.362,-0.3616,-0.3615,-0.3615,-0.3614,-0.3615,-0.3613,-0.3617,-0.3617,-0.3617,-0.3617,-0.3617,0,-0.3829,-0.3817,-0.3805,-0.3786,-0.3775,-0.3765,-0.3749,-0.3741,-0.3729,-0.3714,-0.3702,-0.3686,-0.3671,-0.3654,-0.3639,-0.3633,-0.3628,-0.363,-0.363,-0.3627,-0.362,-0.3622,-0.3634,-0.3634,-0.3634,-0.3634,-0.3634,-0.3634,-0.3833,-0.3822,-0.3811,-0.3793,-0.3781,-0.3767,-0.3759,-0.3747,-0.3735,-0.3717,-0.3705,-0.3694,-0.3678,-0.3662,-0.3648,-0.3643,-0.3638,-0.3642,-0.3635,-0.3629,-0.3628,-0.3626,-0.3628,-0.3641,-0.3641,-0.3643,-0.3643,-0.3643]},{"header":{"parameterUnit":"m.s-1","parameterCategory":1,"la1":30.2991,"la2":30.254,"lo1":-89.0895,"lo2":-89.0444,"dy":0.0017,"dx":0.0017,"nx":28,"ny":28,"refTime":"2023-11-07T09:00:00:Z","depth":0,"parameterNumber":3,"parameterNumberName":"V-component_of_WINDS"},"data":[0,0,0,0,0,0,0,0,0,0,0,0,0,0,0,0,0,0,0,0,0,0,0,0,0,0,0,0,0,0,0,0,0,0,0,0,0,0,0,0,0,0,0,0,0,0,0,0,0,0,0,0,0,0,0,0,0,0,2.7429,2.7429,0,2.7434,2.7434,2.7434,2.7464,2.7465,2.7465,2.7466,2.7468,2.7468,2.7467,0,0,0,0,0,0,0,0,0,0,0,0,0,2.7443,2.7442,2.7429,2.7429,2.7429,2.7434,2.7434,2.7434,2.7464,2.7465,2.7465,2.7466,2.7469,2.7468,2.7467,0,0,0,0,0,0,0,0,0,0,0,0,0,2.7441,2.7442,2.7429,2.7444,2.7446,2.7434,2.7434,2.7434,2.7464,2.7465,2.7466,2.7467,2.7469,2.7468,2.7467,2.744,0,0,2.7464,2.7464,0,0,0,0,0,0,0,0,2.7441,2.7441,2.7442,2.7443,2.7445,2.7449,2.744,2.7436,2.7463,2.7457,2.7466,2.7467,2.7461,2.7461,2.7459,2.744,2.744,2.7464,2.7464,2.7463,2.7463,0,0,0,0,0,0,0,2.7441,2.744,2.7431,2.7442,2.7444,2.7451,2.7452,2.7439,2.7453,2.7457,2.7459,2.746,2.7462,2.746,2.746,2.744,2.7464,2.7463,2.7463,2.7462,2.7401,2.74,0,0,0,0,0,0,2.7439,2.744,2.7431,2.7431,2.7446,2.7449,2.7451,2.7447,2.7453,2.7455,2.7459,2.7461,2.7461,2.7461,2.746,2.743,2.7463,2.7462,2.7462,2.7402,2.7401,2.74,0,0,0,0,0,0,2.744,2.7438,2.743,2.7436,2.7436,2.7448,2.7444,2.7446,2.7445,2.7454,2.7456,2.7455,2.7462,2.7461,2.7445,2.7431,2.7462,2.7461,2.7404,2.7402,2.74,2.7369,0,0,0,0,0,0,2.744,2.7438,2.7428,2.7436,2.7435,2.7416,2.7443,2.7446,2.7443,2.7446,2.7451,2.7453,2.7463,2.7447,2.7445,2.743,2.746,2.7405,2.7403,2.7401,2.7372,2.7367,2.7363,0,0,0,0,0,2.744,2.7418,2.7427,2.7426,2.7423,2.7415,2.7415,2.7428,2.7442,2.7432,2.7439,2.7452,2.7433,2.7445,2.7443,2.7428,2.7406,2.7403,2.7401,2.7374,2.7368,2.7363,0,0,0,0,0,0,2.7406,2.7419,2.743,2.7409,2.7411,2.742,2.7408,2.7421,2.7418,2.7421,2.7436,2.7437,2.7419,2.7422,2.7435,2.7403,2.7422,2.7419,2.7402,2.7396,2.7392,2.7392,2.746,0,0,0,0,0,2.7397,2.739,2.7401,2.7382,2.7383,2.7395,2.7392,2.7402,2.7404,2.7405,2.741,2.7411,2.7405,2.7401,2.7396,2.7372,2.7375,2.7361,2.7357,2.7353,2.735,2.734,2.7335,2.7392,2.7392,2.7392,0,0,2.7376,2.7383,2.7377,2.7375,2.7378,2.7371,2.7395,2.7386,2.738,2.7403,2.7389,2.7393,2.7395,2.7376,2.7368,2.7378,2.7335,2.735,2.7347,2.7346,2.7337,2.7332,2.7327,2.739,2.739,2.7391,0,0,2.7336,2.7339,2.7325,2.7328,2.7332,2.7341,2.7337,2.7345,2.7349,2.7336,2.7353,2.7347,2.7336,2.7337,2.7337,2.7299,2.7312,2.7297,2.7273,2.7263,2.7259,2.7255,2.7243,2.7238,2.7294,2.7294,2.7294,0,2.731,2.73,2.7315,2.7306,2.7305,2.7327,2.7313,2.7314,2.7316,2.7315,2.7326,2.7315,2.7317,2.73,2.7291,2.729,2.7287,2.7296,2.7258,2.7254,2.7251,2.724,2.7235,2.7292,2.7292,2.7293,2.7293,0,2.7268,2.7261,2.7249,2.7252,2.725,2.7238,2.7252,2.7248,2.7259,2.7267,2.7254,2.7258,2.7255,2.7252,2.7261,2.7236,2.7243,2.7256,2.7275,2.7244,2.7233,2.7229,2.729,2.729,2.7291,2.7291,0,0,2.7205,2.7219,2.7215,2.7218,2.7225,2.722,2.7209,2.7208,2.7205,2.7205,2.7197,2.7189,2.7202,2.7201,2.7211,2.7202,2.7174,2.7217,2.7217,2.721,2.7149,2.714,2.7135,2.7183,2.7182,2.7182,2.7149,0,2.7167,2.7151,2.7166,2.7147,2.7141,2.7163,2.7154,2.7157,2.7165,2.7161,2.7168,2.7163,2.718,2.718,2.7172,2.7179,2.7163,2.7182,2.7176,2.7176,2.7176,2.7129,2.7119,2.7088,2.7145,2.7145,2.7144,0,2.7121,2.7122,2.7103,2.7114,2.7112,2.7104,2.7105,2.7101,2.7106,2.7112,2.7112,2.7125,2.7116,2.7135,2.7123,2.7136,2.7134,2.7138,2.7137,2.7137,2.7158,2.7129,2.7078,2.7074,2.7138,2.7138,2.7139,0,2.7079,2.7075,2.7064,2.7065,2.7077,2.7071,2.7076,2.7082,2.7081,2.7082,2.7082,2.7081,2.708,2.7079,2.7092,2.7105,2.7079,2.7099,2.7084,2.7084,2.7078,2.7078,2.7027,2.7075,2.7075,2.7075,2.7076,0,2.7036,2.7023,2.7046,2.7039,2.7026,2.7043,2.703,2.7037,2.7042,2.7037,2.7055,2.705,2.7067,2.7063,2.7073,2.7062,2.7061,2.7066,2.7069,2.7065,2.7065,2.7065,2.7068,2.7074,2.7075,2.7075,2.7075,0,2.6987,2.7001,2.699,2.7003,2.7006,2.6997,2.7008,2.7002,2.7011,2.7004,2.7004,2.7018,2.7015,2.7028,2.7026,2.7033,2.7018,2.7023,2.7016,2.7019,2.7004,2.7006,2.6952,2.6946,2.6997,2.6996,2.6996,0,2.6959,2.695,2.6963,2.6962,2.6966,2.6963,2.6963,2.698,2.6979,2.6985,2.6979,2.6978,2.6978,2.6972,2.6982,2.6981,2.6988,2.6969,2.6988,2.6985,2.6989,2.699,2.699,2.6965,2.6965,2.6964,2.6964,0,2.6908,2.6916,2.6916,2.6919,2.6918,2.6921,2.6924,2.6922,2.6941,2.6939,2.6937,2.6937,2.6937,2.6936,2.6938,2.6942,2.6956,2.6958,2.6955,2.6951,2.6948,2.6951,2.7007,2.6959,2.6959,2.696,2.696,2.696,2.6869,2.6864,2.6873,2.6872,2.6877,2.6881,2.6877,2.6887,2.6886,2.6888,2.6898,2.6895,2.6901,2.6906,2.6909,2.6907,2.6915,2.691,2.6909,2.6908,2.6906,2.6948,2.6907,2.6907,2.6907,2.6907,2.6907,0,2.6821,2.6828,2.6828,2.6834,2.6834,2.6848,2.6854,2.6852,2.685,2.6855,2.6856,2.6854,2.6854,2.6865,2.6866,2.6862,2.6868,2.6862,2.6863,2.6864,2.6898,2.6901,2.6857,2.6857,2.6857,2.6857,2.6857,2.6857,2.6796,2.6788,2.6797,2.6792,2.6799,2.6797,2.6799,2.6803,2.6808,2.6806,2.6807,2.6814,2.6822,2.6824,2.6825,2.6828,2.6828,2.6819,2.6825,2.6856,2.6861,2.6866,2.6869,2.6819,2.6819,2.6791,2.6791,2.6791]}]]